Location: Kellogg
(38.0159°N, 90.0546°W)
Time: 21:02:03
(UTC+00:00)

Transit 4A - Pass Details

Date: 12 September 2024
Orbit: 864 x 978 km, 66.8° (Epoch: 12 October)

Event Time Altitude Azimuth Distance (km) Brightness Sun altitude
Rises 09:26:10 0° 211° (SSW) 3,434 - -25.9°
Reaches altitude 10° 09:28:37 10° 213° (SSW) 2,506 - -25.5°
Exits shadow 09:33:26 61° 236° (SW) 987 7.7 -24.6°
Maximum altitude 09:34:24 76° 299° (WNW) 908 7.7 -24.5°
Drops below altitude 10° 09:40:22 10° 25° (NNE) 2,575 10.9 -23.4°
Sets 09:42:55 0° 27° (NNE) 3,535 11.7 -23.0°
